Tracking 19489 objects as of 23-Jan-2019
HD Live streaming from Space Station
objects crossing your sky now

SL-8 R/B

Track SL-8 R/B now!
10-day predictions
SL-8 R/B is classified as:


NORAD ID: 2802
Int'l Code: 1967-045B
Perigee: 706.8 km
Apogee: 800.0 km
Inclination: 74.0 °
Period: 99.7 minutes
Semi major axis: 7124 km
RCS: 4.578 m2 (large)
Launch date: May 15, 1967
Source: Commonwealth of Independent States (former USSR) (CIS)
Launch site: PLESETSK MISSILE AND SPACE COMPLEX (PKMTR)

Note: This is a ROCKET BODY
aabbcc
Your satellite tracking list
Your tracking list is empty




NASA's NSSDC Master Catalog

Two Line Element Set (TLE):
1  2802U 67045B   19022.79021487  .00000020  00000-0  13601-4 0  9993
2  2802  74.0117 158.3457 0065450  71.8529 288.9740 14.43715729713348
Source of the keplerian elements: AFSPC